Powrót do katalogu

COSMOS 1375 DEB

AktywnyLEO
NORAD 17804·DEBRIS·🇷🇺 Russia

Wystrzelony Jun 6, 1982 z Plesetsk Cosmodrome

Loading…

Następne Przeloty (najbliższe 24 godziny)

TLE

ŚwieżeSource: Space-Track

Epoka: Sep 14, 2026, 11:21 UTC

1 17804U 82055AW  26257.47299079  .00000971  00000-0  66310-3 0  9995
2 17804  65.8140 123.1307 0017659 195.4240 225.7151 14.04345924 69987

Śledź COSMOS 1375 DEB w czasie rzeczywistym z AllMySat

Download on the App Store